SCP
0 0 0 0 0 0 0 0 0 0 0 0 0 -0 0 0 0 0 0 0 0 0 0 0 0 0 0 0 0 0 0 0 0 0 0 0 0 0 0 0 0 0 0
0 0 0 0 0 0 0 0 0 0 0 0 0 0 -0 0 0 0 0 0 0 0 0 0 0 0 0 0 0 0 0 0 0 0 0 0 0 0 0 0 0 0 0
0 0 0 0 0 0 0 0 0 0 0 0 0 0 -0 0 0 0 0 0 0 0 0 0 0 0 0 -0 0 0 0 0 1 1 0 0 0 0 0 0 0 0 0
0 0 0 0 0 0 0 0 0 0 0 0 0 0 0 -0 0 0 0 0 0 0 0 0 0 0 0 0 0 0 0 0 0 0 0 0 0 0 0 0 0 0 0
0 0 0 0 0 0 0 0 0 0 0 0 0 0 0 0 0 0 0 0 0 0 0 -0 -0 -0 -0 -0 0 0 0 0 0 0 0 0 0 0 0 0 0 0 0
0 0 0 0 0 0 0 0 0 0 0 0 0 0 0 0 -0 0 0 -0 -0 -0 -0 -0 -1 -0 0 0 0 0 0 0 0 0 0 0 0 0 0 0 0 0 0
0 0 0 0 0 0 0 0 0 0 0 0 0 0 0 0 -0 -0 -0 -0 -0 -0 -0 -0 -0 -0 0 0 0 0 0 0 0 0 0 0 0 0 0 0 0 0 0
0 0 0 0 0 0 0 0 0 0 0 0 0 0 0 0 0 -0 -0 -0 -0 -0 -0 0 0 0 0 0 0 0 0 0 0 0 0 0 0 0 0 0 0 0 0
0 0 0 0 0 0 0 0 0 0 0 0 0 0 0 0 -0 0 -0 -0 -0 -0 -0 0 0 0 0 0 0 0 0 0 0 0 0 0 0 0 0 0 0 0 0
0 0 0 0 0 0 0 0 0 0 0 0 0 0 0 0 0 0 -0 -0 -0 -0 0 0 0 0 0 0 0 0 0 0 0 0 0 0 0 0 0 0 0 0 0
0 0 0 0 0 0 0 0 0 0 0 0 0 0 0 0 0 0 0 -0 -0 0 0 0 0 0 0 0 0 0 0 0 0 0 0 0 0 0 0 0 0 0 0
0 0 0 0 0 0 0 0 0 0 0 0 0 0 0 0 0 0 -0 -0 -0 0 0 0 0 0 0 0 0 0 0 0 0 0 0 0 0 0 0 0 0 0 0
0 0 0 0 0 0 0 0 0 0 0 0 0 0 0 0 0 0 0 0 -0 -0 0 0 0 0 0 0 0 0 0 0 0 0 0 0 0 0 0 0 0 0 0
0 0 0 0 0 0 0 0 0 0 0 0 0 0 0 0 0 0 0 0 0 0 0 0 0 0 0 0 0 0 0 0 0 0 0 0 0 0 0 0 0 0 0
0 0 0 0 0 0 0 0 0 0 0 0 0 0 0 0 0 0 0 0 0 0 0 0 0 0 0 0 0 0 0 0 0 0 0 0 0 0 0 0 0 0 0
0 0 0 0 0 0 0 0 -0 0 0 0 0 0 0 0 0 0 0 0 0 0 0 0 0 0 0 0 0 0 -0 0 0 0 0 0 0 0 0 0 0 0 0
0 0 0 0 0 0 0 0 0 0 0 0 0 0 0 0 0 0 0 0 0 0 0 0 0 0 0 0 0 0 -0 0 0 0 0 0 0 0 0 0 0 0 0
0 0 0 0 0 0 0 0 0 0 0 0 0 0 0 0 0 0 0 0 0 0 0 0 0 0 0 0 0 0 0 -0 -0 0 0 0 0 0 0 0 0 0 -0
0 0 0 0 0 0 0 0 0 0 0 0 0 0 0 0 0 0 -0 0 0 0 0 0 0 0 0 0 0 0 -0 0 -0 0 0 0 0 0 0 0 0 0 -0
0 0 0 0 0 0 0 0 0 0 0 0 0 0 0 0 0 0 0 0 0 0 0 0 0 0 0 0 0 -0 0 0 -0 0 0 -0 0 0 0 0 -0 0 0
0 0 0 0 0 0 0 0 0 -0 0 0 0 0 0 0 0 0 0 0 0 0 0 0 0 0 0 0 0 0 0 0 0 0 0 0 0 0 0 0 0 0 0
0 0 0 0 0 0 0 0 0 0 -0 0 0 0 0 0 0 0 0 0 0 0 0 0 0 0 0 0 0 0 0 0 0 0 0 0 0 0 0 0 0 -0 0
0 0 0 0 0 0 0 0 0 0 0 0 0 0 0 0 0 0 0 0 0 0 0 0 0 0 0 0 0 0 0 0 0 0 0 0 0 0 0 0 -0 0 0
0 0 0 0 0 0 0 0 0 0 0 -0 -0 -0 0 0 0 0 0 0 0 0 0 0 0 0 0 0 0 0 0 0 0 0 0 0 0 0 0 0 -0 0 0
0 0 0 0 0 0 0 0 0 0 0 0 0 0 -0 0 0 0 0 0 0 0 0 0 0 0 0 0 0 0 0 0 0 0 0 0 0 0 0 0 -0 0 0
0 0 0 0 0 0 0 0 0 -0 0 -0 0 0 0 0 0 0 0 0 0 0 0 0 0 0 0 0 0 0 -0 -0 0 0 0 0 0 0 0 0 0 0 0
Wind_Speed_500mb
39 41 46 51 56 57 53 52 48 48 57 71 79 78 67 62 59 65 72 77 87 88 66 51 53 55 80 75 110 101 79 68 58 53 42 33 32 27 22 22 17 21 22
78 83 83 79 73 71 64 55 50 46 54 61 65 72 70 64 65 62 67 78 78 72 56 52 44 46 54 61 92 67 60 53 48 50 41 30 24 24 19 17 18 19 22
102 107 110 111 108 105 103 95 76 61 49 50 53 56 66 67 65 59 59 72 77 73 63 52 53 57 15 66 64 63 48 51 49 42 38 27 20 19 20 22 22 24 22
112 103 96 88 85 91 96 99 100 90 76 55 44 42 54 68 59 53 58 74 78 75 74 66 54 66 66 48 54 53 56 49 48 45 37 31 26 25 20 17 5 12 20
96 87 79 79 77 77 79 81 82 87 92 81 63 42 42 59 63 63 61 62 54 46 59 72 64 52 50 56 63 61 53 53 49 43 39 33 31 27 27 28 26 29 29
76 70 76 72 72 73 67 77 78 66 66 77 73 56 35 50 60 55 41 43 57 58 51 43 44 43 46 56 50 47 48 51 37 37 38 34 30 27 19 14 9 14 14
69 69 68 64 65 69 75 68 61 61 67 69 72 71 47 44 54 55 47 56 62 58 50 53 39 39 46 45 43 40 35 33 34 36 35 29 23 23 23 10 8 12 16
65 67 65 62 59 58 65 68 66 64 57 47 46 49 65 45 47 54 53 65 83 83 78 65 46 44 47 50 41 37 36 32 27 24 22 23 17 21 17 12 12 17 22
66 63 59 53 59 60 67 69 65 60 45 54 55 50 45 53 42 61 69 61 62 68 76 62 58 63 52 43 43 41 36 31 26 21 19 17 18 18 15 19 22 27 25
59 55 48 58 67 75 77 72 67 61 60 52 38 38 58 50 49 47 48 76 72 59 47 65 63 58 53 42 35 31 29 22 17 20 20 17 19 19 27 21 27 26 14
56 50 56 67 72 70 67 75 66 56 50 43 53 29 37 59 62 54 58 77 64 52 72 65 62 54 45 38 32 24 19 14 9 7 8 10 16 18 17 18 19 10 8
46 55 65 71 76 82 74 77 61 50 47 33 41 41 32 38 49 43 46 90 67 73 78 72 60 51 42 38 30 22 14 8 5 10 14 7 9 8 6 5 9 10 16
49 60 67 75 71 71 65 60 47 42 39 30 32 36 22 33 36 47 27 51 84 99 86 70 57 47 43 37 26 15 13 15 14 16 13 2 5 3 7 3 13 16 10
55 66 64 62 64 62 52 38 45 36 33 30 29 28 22 21 27 33 47 60 83 87 72 61 53 49 43 37 25 11 16 14 6 12 17 18 8 9 7 7 11 15 10
53 60 65 53 59 51 39 26 25 26 29 34 27 31 23 15 32 38 25 70 83 76 71 64 57 53 50 36 21 4 17 8 8 17 16 11 18 17 6 1 13 14 10
53 62 60 54 49 41 36 25 18 18 20 30 25 36 31 10 21 42 34 42 70 68 65 61 58 52 41 29 13 10 16 5 9 16 20 17 14 24 4 5 10 7 10
46 62 55 40 40 34 30 28 15 12 21 20 25 35 52 8 23 25 49 52 49 60 67 60 50 36 25 18 16 21 15 7 13 17 15 12 12 22 9 4 6 9 11
39 50 55 44 31 29 26 20 17 12 7 24 32 33 56 29 30 38 57 55 55 43 34 39 35 22 17 15 19 17 10 14 18 17 13 14 14 23 21 4 6 7 14
33 41 51 52 34 24 24 17 12 11 11 14 25 40 52 29 30 45 54 54 61 61 43 40 34 20 14 16 17 13 14 19 21 18 15 18 19 25 23 8 12 13 15
35 36 43 43 39 31 17 20 15 14 17 12 22 52 51 28 29 50 61 60 64 73 67 68 39 29 16 18 18 11 14 25 25 20 14 15 18 20 22 11 13 7 13
39 39 42 46 30 37 27 15 15 12 11 5 22 54 43 23 20 32 58 55 54 56 59 58 43 35 34 28 17 7 14 16 15 9 12 8 15 30 19 8 13 11 4
37 38 38 41 42 26 24 9 11 8 6 13 31 42 24 14 15 20 51 54 55 57 54 49 48 46 43 29 19 10 7 16 15 5 7 13 25 26 10 8 9 7 14
41 37 36 38 38 28 22 9 14 13 14 21 39 36 30 22 18 25 35 50 51 52 48 52 51 43 41 31 22 11 9 19 25 12 11 17 24 20 7 12 10 14 31
49 47 45 41 38 35 24 16 5 11 10 18 27 43 34 31 28 30 45 44 42 33 33 37 39 40 38 34 27 21 21 25 23 21 8 13 22 23 7 19 16 13 33
64 58 57 50 46 41 35 26 16 8 6 3 18 30 46 51 38 31 33 46 47 44 37 39 40 40 39 37 34 33 36 34 47 28 27 27 27 19 16 18 17 14 50
70 65 60 54 50 44 40 33 23 13 10 13 13 16 30 46 61 53 43 36 44 54 51 46 45 47 46 42 45 51 51 37 24 21 28 28 25 20 23 38 24 33 47
Wind_Direction_500mb
305 294 285 280 278 275 274 274 276 285 292 295 300 299 300 285 287 287 281 277 269 266 262 268 259 249 257 260 233 228 226 227 230 239 250 256 256 256 235 264 280 286 283
302 299 293 287 283 283 279 276 274 279 278 285 295 300 304 303 291 283 280 273 266 249 241 245 244 235 248 232 219 219 223 228 234 243 249 248 248 242 248 245 265 275 286
311 308 303 297 289 283 281 280 278 281 284 283 284 303 302 303 299 278 275 268 258 243 240 236 231 214 211 202 216 224 225 231 233 233 236 229 229 222 232 263 268 275 274
311 308 303 301 297 294 287 283 281 274 278 284 285 292 299 303 300 279 274 262 254 253 250 228 203 164 143 198 218 225 224 218 220 223 223 214 216 213 228 252 267 288 288
311 308 306 305 303 300 299 295 287 278 271 274 281 289 293 294 294 290 275 264 250 212 182 166 165 158 168 203 213 210 214 213 215 207 206 206 207 232 236 243 246 262 271
311 307 309 306 303 304 298 297 292 287 277 268 272 274 293 287 296 288 260 239 194 187 192 206 220 205 209 207 210 213 215 204 199 206 215 219 223 245 240 232 235 265 283
315 316 318 313 302 297 300 302 299 289 286 280 267 269 272 276 287 280 241 222 213 230 241 235 233 223 208 189 182 182 187 198 217 224 229 230 202 215 231 228 258 269 276
311 316 316 315 313 308 306 303 297 295 291 278 269 268 259 267 274 261 266 239 239 258 261 244 214 203 191 180 182 194 195 189 192 192 195 205 208 230 244 259 265 277 281
315 315 315 317 312 312 312 310 304 284 284 270 269 256 249 256 263 274 245 253 253 270 255 233 198 180 173 179 180 174 174 179 185 195 210 227 232 243 261 267 277 280 290
317 312 310 311 312 313 310 304 305 297 285 268 277 263 247 240 251 263 236 240 255 267 245 190 175 167 168 164 169 165 159 166 176 206 219 233 249 247 254 267 270 279 294
313 312 316 319 319 311 307 304 300 292 282 270 255 255 235 227 240 248 238 227 256 263 189 177 170 168 166 162 153 143 130 138 159 211 240 258 248 234 247 255 270 255 231
317 317 320 322 319 316 307 299 286 289 280 267 253 247 254 218 235 215 227 233 238 208 182 175 171 169 167 156 146 130 106 68 359 299 292 319 252 220 228 259 209 137 123
318 320 325 328 323 324 314 297 273 283 275 260 244 239 242 217 217 226 235 214 207 190 176 174 170 168 164 160 150 115 62 22 357 327 317 244 183 2 16 133 132 146 149
324 329 328 332 327 334 327 299 282 276 266 239 222 222 213 203 203 191 198 197 186 184 170 167 170 169 173 171 157 94 36 13 17 356 30 37 28 20 23 164 155 176 200
329 332 336 328 343 341 339 331 294 271 262 238 214 209 207 186 184 193 173 179 179 178 164 166 166 170 172 173 175 75 2 4 10 346 334 346 16 21 55 86 166 178 210
330 335 340 338 341 350 349 342 321 267 252 220 220 200 203 187 180 186 192 146 172 171 168 165 170 173 177 182 194 299 315 315 334 335 317 289 355 11 42 201 145 162 214
336 337 343 338 346 353 354 351 345 332 213 209 223 226 208 216 187 178 200 184 153 154 159 163 169 180 191 216 250 278 295 295 314 310 321 330 310 344 320 215 182 181 197
342 346 352 330 344 351 352 348 357 355 290 231 218 210 205 217 201 185 187 187 184 195 189 187 187 198 219 245 264 272 261 287 305 321 340 317 288 333 344 257 205 239 232
343 348 351 346 331 347 355 4 335 321 303 310 218 211 187 190 184 191 200 196 204 215 209 199 193 194 206 221 250 238 264 289 317 305 318 301 294 326 335 265 264 258 262
337 343 345 350 336 323 340 350 343 309 300 290 212 190 186 204 186 192 199 200 204 214 222 210 217 204 226 225 239 244 290 307 291 275 310 305 302 335 336 294 247 252 257
343 342 342 349 353 346 314 334 360 339 332 237 188 178 186 199 191 191 197 204 202 202 205 206 218 222 226 216 219 272 310 345 336 256 326 338 331 341 326 286 210 6 331
359 357 354 355 2 1 353 355 24 38 39 162 163 154 173 156 185 205 194 199 199 198 204 208 219 235 221 218 227 265 310 358 354 312 348 351 340 332 320 268 223 340 276
14 10 11 14 15 17 34 17 42 63 97 145 153 163 168 165 149 160 170 194 204 210 214 215 219 209 214 221 230 243 324 325 349 308 303 315 338 331 274 245 206 219 209
25 24 22 27 29 32 44 53 82 68 118 152 182 191 183 174 174 154 163 166 168 171 191 185 193 210 219 218 224 242 283 313 327 343 308 294 326 319 255 193 181 210 205
31 29 27 28 32 35 46 59 98 126 155 143 200 209 215 203 184 177 175 182 181 176 176 184 195 206 210 226 243 257 280 289 301 283 295 302 310 282 224 192 174 178 188
33 35 34 32 32 38 42 47 55 77 115 194 218 220 214 215 219 215 207 208 203 206 208 209 209 215 221 235 260 274 281 285 256 262 279 281 288 260 240 192 210 206 198
Wind_Speed_850mb
39 41 46 51 56 57 53 52 48 48 57 71 79 78 67 62 59 65 72 77 87 88 66 51 53 55 80 75 110 101 79 68 58 53 42 33 32 27 22 22 17 21 22
78 83 83 79 73 71 64 55 50 46 54 61 65 72 70 64 65 62 67 78 78 72 56 52 44 46 54 61 92 67 60 53 48 50 41 30 24 24 19 17 18 19 22
102 107 110 111 108 105 103 95 76 61 49 50 53 56 66 67 65 59 59 72 77 73 63 52 53 57 15 66 64 63 48 51 49 42 38 27 20 19 20 22 22 24 22
112 103 96 88 85 91 96 99 100 90 76 55 44 42 54 68 59 53 58 74 78 75 74 66 54 66 66 48 54 53 56 49 48 45 37 31 26 25 20 17 5 12 20
96 87 79 79 77 77 79 81 82 87 92 81 63 42 42 59 63 63 61 62 54 46 59 72 64 52 50 56 63 61 53 53 49 43 39 33 31 27 27 28 26 29 29
76 70 76 72 72 73 67 77 78 66 66 77 73 56 35 50 60 55 41 43 57 58 51 43 44 43 46 56 50 47 48 51 37 37 38 34 30 27 19 14 9 14 14
69 69 68 64 65 69 75 68 61 61 67 69 72 71 47 44 54 55 47 56 62 58 50 53 39 39 46 45 43 40 35 33 34 36 35 29 23 23 23 10 8 12 16
65 67 65 62 59 58 65 68 66 64 57 47 46 49 65 45 47 54 53 65 83 83 78 65 46 44 47 50 41 37 36 32 27 24 22 23 17 21 17 12 12 17 22
66 63 59 53 59 60 67 69 65 60 45 54 55 50 45 53 42 61 69 61 62 68 76 62 58 63 52 43 43 41 36 31 26 21 19 17 18 18 15 19 22 27 25
59 55 48 58 67 75 77 72 67 61 60 52 38 38 58 50 49 47 48 76 72 59 47 65 63 58 53 42 35 31 29 22 17 20 20 17 19 19 27 21 27 26 14
56 50 56 67 72 70 67 75 66 56 50 43 53 29 37 59 62 54 58 77 64 52 72 65 62 54 45 38 32 24 19 14 9 7 8 10 16 18 17 18 19 10 8
46 55 65 71 76 82 74 77 61 50 47 33 41 41 32 38 49 43 46 90 67 73 78 72 60 51 42 38 30 22 14 8 5 10 14 7 9 8 6 5 9 10 16
49 60 67 75 71 71 65 60 47 42 39 30 32 36 22 33 36 47 27 51 84 99 86 70 57 47 43 37 26 15 13 15 14 16 13 2 5 3 7 3 13 16 10
55 66 64 62 64 62 52 38 45 36 33 30 29 28 22 21 27 33 47 60 83 87 72 61 53 49 43 37 25 11 16 14 6 12 17 18 8 9 7 7 11 15 10
53 60 65 53 59 51 39 26 25 26 29 34 27 31 23 15 32 38 25 70 83 76 71 64 57 53 50 36 21 4 17 8 8 17 16 11 18 17 6 1 13 14 10
53 62 60 54 49 41 36 25 18 18 20 30 25 36 31 10 21 42 34 42 70 68 65 61 58 52 41 29 13 10 16 5 9 16 20 17 14 24 4 5 10 7 10
46 62 55 40 40 34 30 28 15 12 21 20 25 35 52 8 23 25 49 52 49 60 67 60 50 36 25 18 16 21 15 7 13 17 15 12 12 22 9 4 6 9 11
39 50 55 44 31 29 26 20 17 12 7 24 32 33 56 29 30 38 57 55 55 43 34 39 35 22 17 15 19 17 10 14 18 17 13 14 14 23 21 4 6 7 14
33 41 51 52 34 24 24 17 12 11 11 14 25 40 52 29 30 45 54 54 61 61 43 40 34 20 14 16 17 13 14 19 21 18 15 18 19 25 23 8 12 13 15
35 36 43 43 39 31 17 20 15 14 17 12 22 52 51 28 29 50 61 60 64 73 67 68 39 29 16 18 18 11 14 25 25 20 14 15 18 20 22 11 13 7 13
39 39 42 46 30 37 27 15 15 12 11 5 22 54 43 23 20 32 58 55 54 56 59 58 43 35 34 28 17 7 14 16 15 9 12 8 15 30 19 8 13 11 4
37 38 38 41 42 26 24 9 11 8 6 13 31 42 24 14 15 20 51 54 55 57 54 49 48 46 43 29 19 10 7 16 15 5 7 13 25 26 10 8 9 7 14
41 37 36 38 38 28 22 9 14 13 14 21 39 36 30 22 18 25 35 50 51 52 48 52 51 43 41 31 22 11 9 19 25 12 11 17 24 20 7 12 10 14 31
49 47 45 41 38 35 24 16 5 11 10 18 27 43 34 31 28 30 45 44 42 33 33 37 39 40 38 34 27 21 21 25 23 21 8 13 22 23 7 19 16 13 33
64 58 57 50 46 41 35 26 16 8 6 3 18 30 46 51 38 31 33 46 47 44 37 39 40 40 39 37 34 33 36 34 47 28 27 27 27 19 16 18 17 14 50
70 65 60 54 50 44 40 33 23 13 10 13 13 16 30 46 61 53 43 36 44 54 51 46 45 47 46 42 45 51 51 37 24 21 28 28 25 20 23 38 24 33 47
Wind_Direction_850mb
305 294 285 280 278 275 274 274 276 285 292 295 300 299 300 285 287 287 281 277 269 266 262 268 259 249 257 260 233 228 226 227 230 239 250 256 256 256 235 264 280 286 283
302 299 293 287 283 283 279 276 274 279 278 285 295 300 304 303 291 283 280 273 266 249 241 245 244 235 248 232 219 219 223 228 234 243 249 248 248 242 248 245 265 275 286
311 308 303 297 289 283 281 280 278 281 284 283 284 303 302 303 299 278 275 268 258 243 240 236 231 214 211 202 216 224 225 231 233 233 236 229 229 222 232 263 268 275 274
311 308 303 301 297 294 287 283 281 274 278 284 285 292 299 303 300 279 274 262 254 253 250 228 203 164 143 198 218 225 224 218 220 223 223 214 216 213 228 252 267 288 288
311 308 306 305 303 300 299 295 287 278 271 274 281 289 293 294 294 290 275 264 250 212 182 166 165 158 168 203 213 210 214 213 215 207 206 206 207 232 236 243 246 262 271
311 307 309 306 303 304 298 297 292 287 277 268 272 274 293 287 296 288 260 239 194 187 192 206 220 205 209 207 210 213 215 204 199 206 215 219 223 245 240 232 235 265 283
315 316 318 313 302 297 300 302 299 289 286 280 267 269 272 276 287 280 241 222 213 230 241 235 233 223 208 189 182 182 187 198 217 224 229 230 202 215 231 228 258 269 276
311 316 316 315 313 308 306 303 297 295 291 278 269 268 259 267 274 261 266 239 239 258 261 244 214 203 191 180 182 194 195 189 192 192 195 205 208 230 244 259 265 277 281
315 315 315 317 312 312 312 310 304 284 284 270 269 256 249 256 263 274 245 253 253 270 255 233 198 180 173 179 180 174 174 179 185 195 210 227 232 243 261 267 277 280 290
317 312 310 311 312 313 310 304 305 297 285 268 277 263 247 240 251 263 236 240 255 267 245 190 175 167 168 164 169 165 159 166 176 206 219 233 249 247 254 267 270 279 294
313 312 316 319 319 311 307 304 300 292 282 270 255 255 235 227 240 248 238 227 256 263 189 177 170 168 166 162 153 143 130 138 159 211 240 258 248 234 247 255 270 255 231
317 317 320 322 319 316 307 299 286 289 280 267 253 247 254 218 235 215 227 233 238 208 182 175 171 169 167 156 146 130 106 68 359 299 292 319 252 220 228 259 209 137 123
318 320 325 328 323 324 314 297 273 283 275 260 244 239 242 217 217 226 235 214 207 190 176 174 170 168 164 160 150 115 62 22 357 327 317 244 183 2 16 133 132 146 149
324 329 328 332 327 334 327 299 282 276 266 239 222 222 213 203 203 191 198 197 186 184 170 167 170 169 173 171 157 94 36 13 17 356 30 37 28 20 23 164 155 176 200
329 332 336 328 343 341 339 331 294 271 262 238 214 209 207 186 184 193 173 179 179 178 164 166 166 170 172 173 175 75 2 4 10 346 334 346 16 21 55 86 166 178 210
330 335 340 338 341 350 349 342 321 267 252 220 220 200 203 187 180 186 192 146 172 171 168 165 170 173 177 182 194 299 315 315 334 335 317 289 355 11 42 201 145 162 214
336 337 343 338 346 353 354 351 345 332 213 209 223 226 208 216 187 178 200 184 153 154 159 163 169 180 191 216 250 278 295 295 314 310 321 330 310 344 320 215 182 181 197
342 346 352 330 344 351 352 348 357 355 290 231 218 210 205 217 201 185 187 187 184 195 189 187 187 198 219 245 264 272 261 287 305 321 340 317 288 333 344 257 205 239 232
343 348 351 346 331 347 355 4 335 321 303 310 218 211 187 190 184 191 200 196 204 215 209 199 193 194 206 221 250 238 264 289 317 305 318 301 294 326 335 265 264 258 262
337 343 345 350 336 323 340 350 343 309 300 290 212 190 186 204 186 192 199 200 204 214 222 210 217 204 226 225 239 244 290 307 291 275 310 305 302 335 336 294 247 252 257
343 342 342 349 353 346 314 334 360 339 332 237 188 178 186 199 191 191 197 204 202 202 205 206 218 222 226 216 219 272 310 345 336 256 326 338 331 341 326 286 210 6 331
359 357 354 355 2 1 353 355 24 38 39 162 163 154 173 156 185 205 194 199 199 198 204 208 219 235 221 218 227 265 310 358 354 312 348 351 340 332 320 268 223 340 276
14 10 11 14 15 17 34 17 42 63 97 145 153 163 168 165 149 160 170 194 204 210 214 215 219 209 214 221 230 243 324 325 349 308 303 315 338 331 274 245 206 219 209
25 24 22 27 29 32 44 53 82 68 118 152 182 191 183 174 174 154 163 166 168 171 191 185 193 210 219 218 224 242 283 313 327 343 308 294 326 319 255 193 181 210 205
31 29 27 28 32 35 46 59 98 126 155 143 200 209 215 203 184 177 175 182 181 176 176 184 195 206 210 226 243 257 280 289 301 283 295 302 310 282 224 192 174 178 188
33 35 34 32 32 38 42 47 55 77 115 194 218 220 214 215 219 215 207 208 203 206 208 209 209 215 221 235 260 274 281 285 256 262 279 281 288 260 240 192 210 206 198